status,avgMeasuredTime,avgSpeed,extID,medianMeasuredTime,TIMESTAMP,vehicleCount,_id,REPORT_ID
OK,158,70,821,158,2014-08-01T07:55:00,4,20746545,209907
OK,158,70,821,158,2014-08-01T08:00:00,4,20746876,209907
OK,176,63,821,176,2014-08-01T08:05:00,2,20747325,209907
OK,163,68,821,163,2014-08-01T08:10:00,4,20747698,209907
OK,160,69,821,160,2014-08-01T08:15:00,3,20748147,209907
OK,174,63,821,174,2014-08-01T08:20:00,0,20748596,209907
OK,174,63,821,174,2014-08-01T08:25:00,0,20749045,209907
OK,180,61,821,180,2014-08-01T08:30:00,1,20749494,209907
OK,180,61,821,180,2014-08-01T08:35:00,1,20749943,209907
OK,180,61,821,180,2014-08-01T08:40:00,0,20750392,209907
OK,156,71,821,156,2014-08-01T08:45:00,2,20750841,209907
OK,158,70,821,158,2014-08-01T08:50:00,3,20751290,209907
OK,185,59,821,185,2014-08-01T08:55:00,1,20751739,209907
OK,185,59,821,185,2014-08-01T09:00:00,0,20752188,209907
OK,185,59,821,185,2014-08-01T09:05:00,0,20752637,209907
OK,171,64,821,171,2014-08-01T09:10:00,2,20753086,209907
OK,175,63,821,175,2014-08-01T09:15:00,3,20753535,209907
OK,384,28,821,384,2014-08-01T09:20:00,3,20753984,209907
OK,384,28,821,384,2014-08-01T09:25:00,2,20754433,209907
OK,384,28,821,384,2014-08-01T09:30:00,0,20754882,209907
OK,159,69,821,159,2014-08-01T09:35:00,1,20755331,209907
OK,163,68,821,163,2014-08-01T09:40:00,2,20755780,209907
OK,167,66,821,167,2014-08-01T09:45:00,1,20756229,209907
OK,167,66,821,167,2014-08-01T09:50:00,0,20756678,209907
OK,167,66,821,167,2014-08-01T09:55:00,0,20757127,209907
OK,153,72,821,153,2014-08-01T10:00:00,1,20757576,209907
OK,163,68,821,163,2014-08-01T10:05:00,2,20758025,209907
OK,179,61,821,179,2014-08-01T10:10:00,3,20758474,209907
OK,183,60,821,183,2014-08-01T10:15:00,2,20758923,209907
OK,142,78,821,142,2014-08-01T10:20:00,1,20759372,209907
OK,142,78,821,142,2014-08-01T10:25:00,1,20759821,209907
OK,142,78,821,142,2014-08-01T10:30:00,0,20760270,209907
OK,142,78,821,142,2014-08-01T10:35:00,0,20760719,209907
OK,149,74,821,149,2014-08-01T10:40:00,1,20761168,209907
OK,160,69,821,160,2014-08-01T10:45:00,3,20761617,209907
OK,173,64,821,173,2014-08-01T10:50:00,3,20762066,209907
OK,149,74,821,149,2014-08-01T10:55:00,3,20762515,209907
OK,149,74,821,149,2014-08-01T11:00:00,3,20762964,209907
OK,158,70,821,158,2014-08-01T11:05:00,3,20763413,209907
OK,161,68,821,161,2014-08-01T11:10:00,3,20763862,209907
OK,169,65,821,169,2014-08-01T11:15:00,2,20764310,209907
OK,166,66,821,166,2014-08-01T11:20:00,1,20764759,209907
OK,155,71,821,155,2014-08-01T11:25:00,1,20765208,209907
OK,151,73,821,151,2014-08-01T11:30:00,4,20765657,209907
OK,151,73,821,151,2014-08-01T11:35:00,4,20766106,209907
OK,164,67,821,164,2014-08-01T11:40:00,3,20766555,209907
OK,166,66,821,166,2014-08-01T11:45:00,2,20767004,209907
OK,166,66,821,166,2014-08-01T11:50:00,1,20767453,209907
OK,150,73,821,150,2014-08-01T11:55:00,2,20767902,209907
OK,135,82,821,135,2014-08-01T12:00:00,1,20768351,209907
OK,178,62,821,178,2014-08-01T12:05:00,1,20768800,209907
OK,179,61,821,179,2014-08-01T12:10:00,2,20769249,209907
OK,182,60,821,182,2014-08-01T12:15:00,3,20769698,209907
OK,174,63,821,174,2014-08-01T12:20:00,2,20770147,209907
OK,164,67,821,164,2014-08-01T12:25:00,1,20770596,209907
OK,153,72,821,153,2014-08-01T12:30:00,2,20771045,209907
OK,142,78,821,142,2014-08-01T12:35:00,1,20771494,209907
OK,142,78,821,142,2014-08-01T12:40:00,0,20771943,209907
OK,154,72,821,154,2014-08-01T12:45:00,1,20772392,209907
OK,154,72,821,154,2014-08-01T12:50:00,1,20772841,209907
OK,154,72,821,154,2014-08-01T12:55:00,0,20773290,209907
OK,142,78,821,142,2014-08-01T13:00:00,2,20773739,209907
OK,146,75,821,146,2014-08-01T13:05:00,4,20774188,209907
OK,157,70,821,157,2014-08-01T13:10:00,3,20774637,209907
OK,157,70,821,157,2014-08-01T13:15:00,1,20775086,209907
OK,157,70,821,157,2014-08-01T13:20:00,0,20775535,209907
OK,157,70,821,157,2014-08-01T13:25:00,0,20775984,209907
OK,309,35,821,309,2014-08-01T13:30:00,1,20776433,209907
OK,156,71,821,156,2014-08-01T13:35:00,3,20776882,209907
OK,156,71,821,156,2014-08-01T13:40:00,3,20777331,209907
OK,173,64,821,173,2014-08-01T13:45:00,1,20777780,209907
OK,177,62,821,177,2014-08-01T13:50:00,2,20778229,209907
OK,177,62,821,177,2014-08-01T13:55:00,2,20778678,209907
OK,155,71,821,155,2014-08-01T14:00:00,1,20779127,209907
OK,163,68,821,163,2014-08-01T14:05:00,2,20779576,209907
OK,150,73,821,150,2014-08-01T14:10:00,4,20780025,209907
OK,145,76,821,145,2014-08-01T14:15:00,4,20780474,209907
OK,156,71,821,156,2014-08-01T14:20:00,2,20780923,209907
OK,161,68,821,161,2014-08-01T14:25:00,2,20781372,209907
OK,144,77,821,144,2014-08-01T14:30:00,2,20781821,209907
OK,142,78,821,142,2014-08-01T14:35:00,2,20782270,209907
OK,150,73,821,150,2014-08-01T14:40:00,1,20782719,209907
OK,150,73,821,150,2014-08-01T14:45:00,0,20783168,209907
OK,150,73,821,150,2014-08-01T14:50:00,0,20783617,209907
OK,150,73,821,150,2014-08-01T14:55:00,0,20784066,209907
OK,150,73,821,150,2014-08-01T15:00:00,0,20784515,209907
OK,150,73,821,150,2014-08-01T15:05:00,0,20784964,209907
OK,159,69,821,159,2014-08-01T15:10:00,1,20785413,209907
OK,159,69,821,159,2014-08-01T15:15:00,1,20785862,209907
OK,159,69,821,159,2014-08-01T15:20:00,0,20786311,209907
OK,164,67,821,164,2014-08-01T15:25:00,2,20786760,209907
OK,164,67,821,164,2014-08-01T15:30:00,2,20787209,209907
OK,172,64,821,172,2014-08-01T15:35:00,0,20787658,209907
OK,172,64,821,172,2014-08-01T15:40:00,0,20788107,209907
OK,160,69,821,160,2014-08-01T15:45:00,1,20788556,209907
OK,171,64,821,171,2014-08-01T15:50:00,2,20789005,209907
OK,183,60,821,183,2014-08-01T15:55:00,1,20789454,209907
OK,183,60,821,183,2014-08-01T16:00:00,0,20789903,209907
OK,183,60,821,183,2014-08-01T16:05:00,0,20790352,209907
OK,147,75,821,147,2014-08-01T16:10:00,2,20790801,209907
OK,173,64,821,173,2014-08-01T16:15:00,6,20791250,209907
OK,176,63,821,176,2014-08-01T16:20:00,3,20791699,209907
OK,140,79,821,140,2014-08-01T16:25:00,1,20792148,209907
OK,140,79,821,140,2014-08-01T16:30:00,1,20792597,209907
OK,140,79,821,140,2014-08-01T16:35:00,2,20793046,209907
OK,140,79,821,140,2014-08-01T16:40:00,2,20793495,209907
OK,129,86,821,129,2014-08-01T16:45:00,0,20793944,209907
OK,129,86,821,129,2014-08-01T16:50:00,0,20794393,209907
OK,129,86,821,129,2014-08-01T16:55:00,0,20794842,209907
OK,125,88,821,125,2014-08-01T17:00:00,1,20795291,209907
OK,125,88,821,125,2014-08-01T17:05:00,1,20795740,209907
OK,125,88,821,125,2014-08-01T17:10:00,0,20796189,209907
OK,125,88,821,125,2014-08-01T17:15:00,0,20796638,209907
OK,125,88,821,125,2014-08-01T17:20:00,0,20797087,209907
OK,125,88,821,125,2014-08-01T17:25:00,0,20797536,209907
OK,125,88,821,125,2014-08-01T17:30:00,0,20797985,209907
OK,139,79,821,139,2014-08-01T17:35:00,1,20798434,209907
OK,139,79,821,139,2014-08-01T17:40:00,1,20798883,209907
OK,139,79,821,139,2014-08-01T17:45:00,0,20799332,209907
OK,147,75,821,147,2014-08-01T17:50:00,1,20799781,209907
OK,147,75,821,147,2014-08-01T17:55:00,0,20800230,209907
OK,147,75,821,147,2014-08-01T18:00:00,0,20800679,209907
OK,145,76,821,145,2014-08-01T18:05:00,1,20801128,209907
OK,145,76,821,145,2014-08-01T18:10:00,1,20801577,209907
OK,145,76,821,145,2014-08-01T18:15:00,0,20802026,209907
OK,145,76,821,145,2014-08-01T18:20:00,0,20802475,209907
OK,145,76,821,145,2014-08-01T18:25:00,0,20802924,209907
OK,145,76,821,145,2014-08-01T18:30:00,0,20803373,209907
OK,145,76,821,145,2014-08-01T18:35:00,0,20803822,209907
OK,145,76,821,145,2014-08-01T18:40:00,0,20804271,209907
OK,145,76,821,145,2014-08-01T18:45:00,0,20804720,209907
OK,141,78,821,141,2014-08-01T18:50:00,1,20805169,209907
OK,141,78,821,141,2014-08-01T18:55:00,1,20805618,209907
OK,141,78,821,141,2014-08-01T19:00:00,0,20806067,209907
OK,141,78,821,141,2014-08-01T19:05:00,0,20806516,209907
OK,158,70,821,158,2014-08-01T19:10:00,1,20806965,209907
OK,158,70,821,158,2014-08-01T19:15:00,0,20807414,209907
OK,158,70,821,158,2014-08-01T19:20:00,0,20807863,209907
OK,158,70,821,158,2014-08-01T19:25:00,0,20808312,209907
OK,158,70,821,158,2014-08-01T19:30:00,0,20808761,209907
OK,158,70,821,158,2014-08-01T19:35:00,0,20809210,209907
OK,158,70,821,158,2014-08-01T19:40:00,0,20809659,209907
OK,169,65,821,169,2014-08-01T19:45:00,1,20810108,209907
OK,169,65,821,169,2014-08-01T19:50:00,1,20810557,209907
OK,169,65,821,169,2014-08-01T19:55:00,0,20811006,209907
OK,169,65,821,169,2014-08-01T22:00:00,0,20816735,209907
OK,169,65,821,169,2014-08-01T22:05:00,0,20817184,209907
OK,169,65,821,169,2014-08-02T00:00:00,0,20823174,209907
OK,169,65,821,169,2014-08-02T00:05:00,0,20823623,209907
OK,169,65,821,169,2014-08-02T00:10:00,0,20824072,209907
OK,169,65,821,169,2014-08-02T00:15:00,0,20824521,209907
OK,169,65,821,169,2014-08-02T00:20:00,0,20824970,209907
OK,169,65,821,169,2014-08-02T00:25:00,0,20825419,209907
OK,169,65,821,169,2014-08-02T00:30:00,0,20825868,209907
OK,169,65,821,169,2014-08-02T00:35:00,0,20826317,209907
OK,169,65,821,169,2014-08-02T00:40:00,0,20826766,209907
OK,169,65,821,169,2014-08-02T00:45:00,0,20827215,209907
OK,169,65,821,169,2014-08-02T00:50:00,0,20827664,209907
OK,169,65,821,169,2014-08-02T00:55:00,0,20828113,209907
OK,169,65,821,169,2014-08-02T01:00:00,0,20828562,209907
OK,169,65,821,169,2014-08-02T01:05:00,0,20829011,209907
OK,169,65,821,169,2014-08-02T01:10:00,0,20829460,209907
OK,169,65,821,169,2014-08-02T01:15:00,0,20829909,209907
OK,169,65,821,169,2014-08-02T01:20:00,0,20830358,209907
OK,169,65,821,169,2014-08-02T01:25:00,0,20830807,209907
OK,169,65,821,169,2014-08-02T01:30:00,0,20831256,209907
OK,169,65,821,169,2014-08-02T01:35:00,0,20831705,209907
OK,169,65,821,169,2014-08-02T01:40:00,0,20832154,209907
OK,169,65,821,169,2014-08-02T01:45:00,0,20832603,209907
OK,169,65,821,169,2014-08-02T01:50:00,0,20833052,209907
OK,169,65,821,169,2014-08-02T01:55:00,0,20833501,209907
OK,169,65,821,169,2014-08-02T02:00:00,0,20833950,209907
OK,169,65,821,169,2014-08-02T02:05:00,0,20834399,209907
OK,169,65,821,169,2014-08-02T02:10:00,0,20834848,209907
OK,169,65,821,169,2014-08-02T02:15:00,0,20835297,209907
OK,169,65,821,169,2014-08-02T02:20:00,0,20835746,209907
OK,169,65,821,169,2014-08-02T02:25:00,0,20836195,209907
OK,169,65,821,169,2014-08-02T02:30:00,0,20836644,209907
OK,169,65,821,169,2014-08-02T02:35:00,0,20837093,209907
OK,169,65,821,169,2014-08-02T02:40:00,0,20837542,209907
OK,169,65,821,169,2014-08-02T02:45:00,0,20837991,209907
OK,169,65,821,169,2014-08-02T02:50:00,0,20838440,209907
OK,169,65,821,169,2014-08-02T02:55:00,0,20838889,209907
OK,169,65,821,169,2014-08-02T03:00:00,0,20839338,209907
OK,169,65,821,169,2014-08-02T03:05:00,0,20839787,209907
OK,169,65,821,169,2014-08-02T03:10:00,0,20840236,209907
OK,169,65,821,169,2014-08-02T03:15:00,0,20840685,209907
OK,169,65,821,169,2014-08-02T03:20:00,0,20841134,209907
OK,169,65,821,169,2014-08-02T03:25:00,0,20841583,209907
OK,169,65,821,169,2014-08-02T03:30:00,0,20842032,209907
OK,169,65,821,169,2014-08-02T03:35:00,0,20842481,209907
OK,169,65,821,169,2014-08-02T03:40:00,0,20842930,209907
OK,169,65,821,169,2014-08-02T03:45:00,0,20843379,209907
OK,169,65,821,169,2014-08-02T03:50:00,0,20843828,209907
OK,169,65,821,169,2014-08-02T03:55:00,0,20844277,209907
OK,169,65,821,169,2014-08-02T04:45:00,0,20847288,209907
OK,169,65,821,169,2014-08-02T04:50:00,0,20847654,209907
OK,175,63,821,175,2014-08-02T06:00:00,0,20851731,209907
OK,175,63,821,175,2014-08-02T06:05:00,0,20852180,209907
OK,175,63,821,175,2014-08-02T06:10:00,0,20852629,209907
OK,175,63,821,175,2014-08-02T06:15:00,0,20853078,209907
OK,135,82,821,135,2014-08-02T06:20:00,1,20853527,209907
OK,143,77,821,143,2014-08-02T06:25:00,1,20853976,209907
OK,143,77,821,143,2014-08-02T06:30:00,1,20854425,209907
OK,143,77,821,143,2014-08-02T06:35:00,0,20854874,209907
OK,143,77,821,143,2014-08-02T06:40:00,0,20855323,209907
OK,143,77,821,143,2014-08-02T06:45:00,0,20855772,209907
OK,143,77,821,143,2014-08-02T06:50:00,0,20856221,209907
OK,201,55,821,201,2014-08-02T06:55:00,1,20856670,209907
OK,201,55,821,201,2014-08-02T07:00:00,1,20857119,209907
OK,201,55,821,201,2014-08-02T07:05:00,0,20857568,209907
OK,119,93,821,119,2014-08-02T07:10:00,1,20858017,209907
OK,119,93,821,119,2014-08-02T07:15:00,1,20858466,209907
OK,140,79,821,140,2014-08-02T07:20:00,1,20858915,209907
OK,140,79,821,140,2014-08-02T07:25:00,0,20859364,209907
OK,140,79,821,140,2014-08-02T07:30:00,0,20859813,209907
OK,140,79,821,140,2014-08-02T07:35:00,0,20860262,209907
OK,160,69,821,160,2014-08-02T07:40:00,1,20860711,209907
OK,169,65,821,169,2014-08-02T07:45:00,3,20861160,209907
OK,169,65,821,169,2014-08-02T07:50:00,1,20861609,209907
OK,161,68,821,161,2014-08-02T07:55:00,1,20862058,209907
OK,161,68,821,161,2014-08-02T08:00:00,1,20862507,209907
OK,161,68,821,161,2014-08-02T08:05:00,0,20862956,209907
OK,161,68,821,161,2014-08-02T08:10:00,0,20863405,209907
OK,161,68,821,161,2014-08-02T08:15:00,0,20863854,209907
OK,161,68,821,161,2014-08-02T08:20:00,0,20864303,209907
OK,161,68,821,161,2014-08-02T08:25:00,0,20864752,209907
OK,144,77,821,144,2014-08-02T08:30:00,1,20865201,209907
OK,144,77,821,144,2014-08-02T08:35:00,1,20865650,209907
OK,149,74,821,149,2014-08-02T08:40:00,2,20866099,209907
OK,163,68,821,163,2014-08-02T08:45:00,4,20866548,209907
OK,197,56,821,197,2014-08-02T08:50:00,2,20866997,209907
OK,161,68,821,161,2014-08-02T08:55:00,1,20867446,209907
OK,161,68,821,161,2014-08-02T09:00:00,1,20867895,209907
OK,161,68,821,161,2014-08-02T09:05:00,0,20868344,209907
OK,161,68,821,161,2014-08-02T09:10:00,0,20868793,209907
OK,161,68,821,161,2014-08-02T09:15:00,0,20869242,209907
OK,161,68,821,161,2014-08-02T09:20:00,0,20869691,209907
OK,157,70,821,157,2014-08-02T09:25:00,1,20870140,209907
OK,157,70,821,157,2014-08-02T09:30:00,1,20870589,209907
OK,139,79,821,139,2014-08-02T09:35:00,2,20871038,209907
OK,139,79,821,139,2014-08-02T09:40:00,2,20871487,209907
OK,149,74,821,149,2014-08-02T09:45:00,1,20871936,209907
OK,149,74,821,149,2014-08-02T09:50:00,1,20872385,209907
OK,149,74,821,149,2014-08-02T09:55:00,0,20872834,209907
OK,149,74,821,149,2014-08-02T10:00:00,0,20873283,209907
OK,149,74,821,149,2014-08-02T10:05:00,0,20873732,209907
OK,149,74,821,149,2014-08-02T10:10:00,0,20874181,209907
OK,162,68,821,162,2014-08-02T10:15:00,1,20874630,209907
OK,162,68,821,162,2014-08-02T10:20:00,1,20875079,209907
OK,156,71,821,156,2014-08-02T10:25:00,1,20875528,209907
OK,162,68,821,162,2014-08-02T10:30:00,1,20875977,209907
OK,162,68,821,162,2014-08-02T10:35:00,1,20876426,209907
OK,268,41,821,268,2014-08-02T10:40:00,1,20876875,209907
OK,268,41,821,268,2014-08-02T10:45:00,1,20877324,209907
OK,150,73,821,150,2014-08-02T10:50:00,1,20877773,209907
OK,144,77,821,144,2014-08-02T10:55:00,2,20878222,209907
OK,142,78,821,142,2014-08-02T11:00:00,2,20878671,209907
OK,145,76,821,145,2014-08-02T11:05:00,1,20879120,209907
OK,145,76,821,145,2014-08-02T11:10:00,0,20879569,209907
OK,145,76,821,145,2014-08-02T11:15:00,0,20880018,209907
OK,165,67,821,165,2014-08-02T11:20:00,1,20880467,209907
OK,165,67,821,165,2014-08-02T11:25:00,1,20880916,209907
OK,165,67,821,165,2014-08-02T11:30:00,0,20881365,209907
OK,165,67,821,165,2014-08-02T11:35:00,0,20881814,209907
OK,165,67,821,165,2014-08-02T11:40:00,0,20882263,209907
OK,165,67,821,165,2014-08-02T11:45:00,0,20882712,209907
OK,146,75,821,146,2014-08-02T11:50:00,1,20883161,209907
OK,160,69,821,160,2014-08-02T11:55:00,2,20883610,209907
OK,174,63,821,174,2014-08-02T12:00:00,1,20884059,209907
OK,154,72,821,154,2014-08-02T12:05:00,2,20884508,209907
OK,154,72,821,154,2014-08-02T12:10:00,2,20884957,209907
OK,127,87,821,127,2014-08-02T12:15:00,1,20885406,209907
OK,163,68,821,163,2014-08-02T12:20:00,3,20885855,209907
OK,163,68,821,163,2014-08-02T12:25:00,3,20886304,209907
OK,147,75,821,147,2014-08-02T12:30:00,1,20886753,209907
OK,123,90,821,123,2014-08-02T12:35:00,1,20887202,209907
OK,158,70,821,158,2014-08-02T12:40:00,3,20887651,209907
OK,158,70,821,158,2014-08-02T12:45:00,0,20888100,209907
OK,158,70,821,158,2014-08-02T12:50:00,0,20888549,209907
OK,158,70,821,158,2014-08-02T12:55:00,0,20888998,209907
OK,157,70,821,157,2014-08-02T13:00:00,1,20889447,209907
OK,149,74,821,149,2014-08-02T13:05:00,2,20889896,209907
OK,141,78,821,141,2014-08-02T13:10:00,2,20890345,209907
OK,141,78,821,141,2014-08-02T13:15:00,1,20890794,209907
OK,141,78,821,141,2014-08-02T13:20:00,0,20891243,209907
OK,139,79,821,139,2014-08-02T13:25:00,1,20891692,209907
OK,139,79,821,139,2014-08-02T13:30:00,0,20892141,209907
OK,139,79,821,139,2014-08-02T13:35:00,0,20892590,209907
OK,162,68,821,162,2014-08-02T13:40:00,1,20893039,209907
OK,162,68,821,162,2014-08-02T13:45:00,1,20893488,209907
OK,162,68,821,162,2014-08-02T13:50:00,0,20893937,209907
OK,162,68,821,162,2014-08-02T13:55:00,0,20894386,209907
OK,162,68,821,162,2014-08-02T14:00:00,0,20894835,209907
OK,158,70,821,158,2014-08-02T14:05:00,1,20895284,209907
OK,158,70,821,158,2014-08-02T14:10:00,1,20895733,209907
OK,158,70,821,158,2014-08-02T14:15:00,0,20896182,209907
OK,158,70,821,158,2014-08-02T14:20:00,0,20896631,209907
OK,157,70,821,157,2014-08-02T14:25:00,1,20897080,209907
OK,142,78,821,142,2014-08-02T14:30:00,2,20897529,209907
OK,127,87,821,127,2014-08-02T14:35:00,1,20897978,209907
OK,135,82,821,135,2014-08-02T14:40:00,1,20898427,209907
OK,135,82,821,135,2014-08-02T14:45:00,1,20898876,209907
OK,135,82,821,135,2014-08-02T14:50:00,0,20899325,209907
OK,135,82,821,135,2014-08-02T14:55:00,0,20899774,209907
OK,146,75,821,146,2014-08-02T15:00:00,1,20900223,209907
OK,144,77,821,144,2014-08-02T15:05:00,2,20900672,209907
OK,144,77,821,144,2014-08-02T15:10:00,2,20901121,209907
OK,148,74,821,148,2014-08-02T15:15:00,2,20901570,209907
OK,147,75,821,147,2014-08-02T15:20:00,2,20902019,209907
OK,144,77,821,144,2014-08-02T15:25:00,0,20902468,209907
OK,144,77,821,144,2014-08-02T15:30:00,0,20902917,209907
OK,144,77,821,144,2014-08-02T15:35:00,0,20903366,209907
OK,144,77,821,144,2014-08-02T15:40:00,0,20903815,209907
OK,144,77,821,144,2014-08-02T15:45:00,0,20904264,209907
OK,144,77,821,144,2014-08-02T15:50:00,0,20904713,209907
OK,144,77,821,144,2014-08-02T15:55:00,0,20905162,209907
OK,144,77,821,144,2014-08-02T16:00:00,0,20905611,209907
OK,144,77,821,144,2014-08-02T16:05:00,0,20906060,209907
OK,148,74,821,148,2014-08-02T16:10:00,1,20906509,209907
OK,148,74,821,148,2014-08-02T16:15:00,1,20906958,209907
OK,148,74,821,148,2014-08-02T16:20:00,0,20907407,209907
OK,148,74,821,148,2014-08-02T16:25:00,0,20907856,209907
OK,148,74,821,148,2014-08-02T16:30:00,0,20908305,209907
OK,148,74,821,148,2014-08-02T16:35:00,0,20908754,209907
OK,161,68,821,161,2014-08-02T16:40:00,2,20909203,209907
OK,161,68,821,161,2014-08-02T16:45:00,0,20909652,209907
OK,161,68,821,161,2014-08-02T16:50:00,0,20910101,209907
OK,161,68,821,161,2014-08-02T16:55:00,0,20910550,209907
OK,161,68,821,161,2014-08-02T17:00:00,0,20910999,209907
OK,161,68,821,161,2014-08-02T17:05:00,0,20911448,209907
OK,161,68,821,161,2014-08-02T17:10:00,0,20911897,209907
OK,161,68,821,161,2014-08-02T17:15:00,0,20912346,209907
OK,161,68,821,161,2014-08-02T17:20:00,0,20912795,209907
OK,161,68,821,161,2014-08-02T17:25:00,0,20913244,209907
OK,161,68,821,161,2014-08-02T17:30:00,0,20913693,209907
OK,135,82,821,135,2014-08-02T17:35:00,1,20914142,209907
OK,135,82,821,135,2014-08-02T17:40:00,1,20914591,209907
OK,135,82,821,135,2014-08-02T17:45:00,0,20915040,209907
OK,135,82,821,135,2014-08-02T17:50:00,0,20915489,209907
OK,135,82,821,135,2014-08-02T17:55:00,0,20915938,209907
OK,135,82,821,135,2014-08-02T18:00:00,0,20916387,209907
OK,135,82,821,135,2014-08-02T18:05:00,0,20916836,209907
OK,135,82,821,135,2014-08-02T18:10:00,0,20917285,209907
OK,135,82,821,135,2014-08-02T18:15:00,0,20917734,209907
OK,134,82,821,134,2014-08-02T18:20:00,1,20918183,209907
OK,134,82,821,134,2014-08-02T18:25:00,0,20918632,209907
OK,134,82,821,134,2014-08-02T18:30:00,0,20919081,209907
OK,134,82,821,134,2014-08-02T18:35:00,0,20919530,209907
OK,134,82,821,134,2014-08-02T18:40:00,0,20919979,209907
OK,140,79,821,140,2014-08-02T18:45:00,1,20920428,209907
OK,177,62,821,177,2014-08-02T18:50:00,1,20920877,209907
OK,177,62,821,177,2014-08-02T18:55:00,0,20921326,209907
OK,177,62,821,177,2014-08-02T19:00:00,0,20921775,209907
OK,177,62,821,177,2014-08-02T19:05:00,0,20922224,209907
OK,169,65,821,169,2014-08-02T19:10:00,1,20922673,209907
OK,169,65,821,169,2014-08-02T19:15:00,0,20923122,209907
OK,169,65,821,169,2014-08-02T19:20:00,0,20923571,209907
OK,139,79,821,139,2014-08-02T19:25:00,1,20924020,209907
OK,139,79,821,139,2014-08-02T19:30:00,0,20924469,209907
OK,139,79,821,139,2014-08-02T19:35:00,0,20924918,209907
OK,139,79,821,139,2014-08-02T19:40:00,0,20925367,209907
OK,139,79,821,139,2014-08-02T19:45:00,0,20925816,209907
OK,139,79,821,139,2014-08-02T19:50:00,0,20926265,209907
OK,139,79,821,139,2014-08-02T19:55:00,0,20926714,209907
OK,170,65,821,170,2014-08-02T20:00:00,1,20927163,209907
OK,170,65,821,170,2014-08-02T20:05:00,1,20927612,209907
OK,170,65,821,170,2014-08-02T20:10:00,0,20928061,209907
OK,141,78,821,141,2014-08-02T20:15:00,1,20928510,209907
OK,141,78,821,141,2014-08-02T20:20:00,1,20928959,209907
OK,141,78,821,141,2014-08-02T20:25:00,0,20929408,209907
OK,141,78,821,141,2014-08-02T20:30:00,0,20929857,209907
OK,141,78,821,141,2014-08-02T20:35:00,0,20930306,209907
OK,141,78,821,141,2014-08-02T20:40:00,0,20930755,209907
OK,141,78,821,141,2014-08-02T20:45:00,0,20931204,209907
OK,141,78,821,141,2014-08-02T20:50:00,0,20931653,209907
OK,141,78,821,141,2014-08-02T20:55:00,0,20932102,209907
OK,141,78,821,141,2014-08-02T21:00:00,0,20932551,209907
OK,141,78,821,141,2014-08-02T21:05:00,0,20933000,209907
OK,161,68,821,161,2014-08-02T21:10:00,1,20933449,209907
OK,161,68,821,161,2014-08-02T21:15:00,0,20933898,209907
OK,161,68,821,161,2014-08-02T21:20:00,0,20934347,209907
OK,161,68,821,161,2014-08-02T21:25:00,0,20934796,209907
OK,161,68,821,161,2014-08-02T21:30:00,0,20935245,209907
OK,161,68,821,161,2014-08-02T21:35:00,0,20935694,209907
OK,161,68,821,161,2014-08-02T21:40:00,0,20936143,209907
OK,161,68,821,161,2014-08-02T21:45:00,0,20936592,209907
OK,160,69,821,160,2014-08-02T21:50:00,1,20937041,209907
OK,160,69,821,160,2014-08-02T21:55:00,0,20937490,209907
OK,160,69,821,160,2014-08-02T22:00:00,0,20937939,209907
OK,160,69,821,160,2014-08-02T22:05:00,0,20938388,209907
OK,160,69,821,160,2014-08-02T22:10:00,0,20938837,209907
OK,160,69,821,160,2014-08-02T22:15:00,0,20939286,209907
OK,160,69,821,160,2014-08-02T22:20:00,0,20939735,209907
OK,160,69,821,160,2014-08-02T22:25:00,0,20940184,209907
OK,160,69,821,160,2014-08-02T22:30:00,0,20940633,209907
OK,160,69,821,160,2014-08-02T22:35:00,0,20941082,209907
OK,160,69,821,160,2014-08-02T22:40:00,0,20941531,209907
OK,160,69,821,160,2014-08-02T22:45:00,0,20941980,209907
OK,160,69,821,160,2014-08-02T22:50:00,0,20942429,209907
OK,160,69,821,160,2014-08-02T22:55:00,0,20942878,209907
OK,160,69,821,160,2014-08-02T23:00:00,0,20943327,209907
OK,160,69,821,160,2014-08-02T23:10:00,0,20943776,209907
OK,160,69,821,160,2014-08-02T23:15:00,0,20944225,209907
OK,160,69,821,160,2014-08-02T23:20:00,0,20944674,209907
OK,160,69,821,160,2014-08-02T23:25:00,0,20945123,209907
OK,160,69,821,160,2014-08-02T23:30:00,0,20945572,209907
OK,160,69,821,160,2014-08-02T23:35:00,0,20946021,209907
OK,160,69,821,160,2014-08-02T23:40:00,0,20946470,209907
OK,160,69,821,160,2014-08-02T23:45:00,0,20946919,209907
OK,160,69,821,160,2014-08-02T23:50:00,0,20947368,209907
OK,160,69,821,160,2014-08-02T23:55:00,0,20947817,209907
OK,160,69,821,160,2014-08-03T00:00:00,0,20948266,209907
OK,160,69,821,160,2014-08-03T00:05:00,0,20948715,209907
OK,160,69,821,160,2014-08-03T00:10:00,0,20949164,209907
OK,160,69,821,160,2014-08-03T00:15:00,0,20949612,209907
OK,160,69,821,160,2014-08-03T00:20:00,0,20950061,209907
OK,160,69,821,160,2014-08-03T00:25:00,0,20950510,209907
OK,160,69,821,160,2014-08-03T00:30:00,0,20950959,209907